Location: Unspecified
(0.0000°N, 0.0000°E)
Time: 14:04:39
(UTC+00:00)

Altair - Pass Details

Date: 31 October 2021
Orbit: 1502 x 1682 km, 47.2° (Epoch: 26 November)

Event Time Altitude Azimuth Distance (km) Brightness Sun altitude
Rises 21:03:11 0° 214° (SW) 4,712 10.6 -47.8°
Reaches altitude 10° 21:06:18 10° 212° (SSW) 3,707 9.9 -48.5°
Enters shadow 21:10:06 28° 205° (SSW) 2,553 8.8 -49.4°
Maximum altitude 21:15:33 69° 130° (SE) 1,597 - -50.7°
Drops below altitude 10° 21:24:37 10° 48° (NE) 3,643 - -52.7°
Sets 21:27:38 0° 46° (NE) 4,627 - -53.4°
